Location: Владивосток
(43.1151°N, 131.8856°E)
Time: 08:18:39
(UTC+10:00)

DUCHIFAT 1 - Pass Details

Date: 02 July 2022
Orbit: 579 x 596 km, 98.0° (Epoch: 18 August)

Event Time Altitude Azimuth Distance (km) Brightness Sun altitude
Rises 04:28:18 0° 4° (N) 2,845 ? -10.5°
Reaches altitude 10° 04:30:36 10° 355° (N) 1,941 ? -10.2°
Maximum altitude 04:34:24 34° 290° (WNW) 990 ? -9.7°
Enters shadow 04:37:48 12° 228° (SW) 1,786 ? -9.3°
